Tracking 31027 objects as of 19-Jul-2025
HD Live streaming from Space Station
objects crossing your sky now

STARLINK-5482

Track STARLINK-5482 now!
10-day predictions
STARLINK-5482 is classified as:


NORAD ID: 56358
Int'l Code: 2023-058AT
Perigee: 567.3 km
Apogee: 573.0 km
Inclination: 97.7 °
Period: 95.9 minutes
Semi major axis: 6941 km
RCS: Unknown
Launch date: April 27, 2023
Source: United States (US)
Launch site: AIR FORCE WESTERN TEST RANGE (AFWTR)
Your satellite tracking list
STARLINK-5088
Track 1 satellite(s)




NASA's NSSDC Master Catalog

Two Line Element Set (TLE):
1 56358U 23058AT  25199.87350666  .00000251  00000-0  24154-4 0  9990
2 56358  97.6542 201.0996 0004084  58.1131 302.0490 15.01260619123054
Source of the keplerian elements: AFSPC